| time (UTC) | temp F | wind direction | speed MPH | gust MPH | rain 1hr in | rain 24hr in | rain mn in | humidity % | barometer mb |
| 20260902191139 | 86 | 250 | 2.0 | 7.0 | 0.00 | 0.39 | 0.39 | 74 | 1017.3 |
| 20260902190625 | 86 | 231 | 3.0 | 7.0 | 0.00 | 0.39 | 0.39 | 73 | 1017.4 |
| 20260902190119 | 86 | 208 | 1.0 | 10.0 | 0.00 | 0.39 | 0.39 | 75 | 1017.3 |
| 20260902185636 | 85 | 244 | 4.0 | 7.0 | 0.00 | 0.39 | 0.39 | 74 | 1017.4 |
| 20260902185123 | 85 | 201 | 1.0 | 11.0 | 0.00 | 0.39 | 0.39 | 74 | 1017.4 |
| 20260902184636 | 85 | 197 | 2.0 | 11.0 | 0.00 | 0.39 | 0.39 | 74 | 1017.5 |
| 20260902184123 | 86 | 150 | 5.0 | 12.0 | 0.00 | 0.39 | 0.39 | 74 | 1017.5 |
| 20260902183636 | 86 | 174 | 7.0 | 13.0 | 0.00 | 0.39 | 0.39 | 75 | 1017.6 |
| 20260902183123 | 85 | 151 | 4.0 | 8.0 | 0.00 | 0.39 | 0.39 | 76 | 1017.6 |
| 20260902182619 | 85 | 174 | 6.0 | 8.0 | 0.00 | 0.39 | 0.39 | 75 | 1017.7 |
| 20260902182134 | 85 | 157 | 2.0 | 6.0 | 0.00 | 0.39 | 0.39 | 75 | 1017.7 |
| 20260902181623 | 85 | 153 | 2.0 | 7.0 | 0.00 | 0.39 | 0.39 | 76 | 1017.8 |
| 20260902181137 | 84 | 154 | 1.0 | 6.0 | 0.00 | 0.39 | 0.39 | 78 | 1017.9 |
| 20260902180623 | 84 | 158 | 1.0 | 6.0 | 0.00 | 0.39 | 0.39 | 75 | 1017.9 |
| 20260902180137 | 84 | 186 | 2.0 | 8.0 | 0.00 | 0.39 | 0.39 | 77 | 1018.1 |
| 20260902175632 | 83 | 168 | 1.0 | 7.0 | 0.00 | 0.39 | 0.39 | 78 | 1018.2 |
| 20260902175121 | 82 | 180 | 2.0 | 7.0 | 0.00 | 0.39 | 0.39 | 77 | 1018.3 |
| 20260902174636 | 82 | 188 | 3.0 | 5.0 | 0.00 | 0.39 | 0.39 | 77 | 1018.3 |
| 20260902174124 | 81 | 193 | 2.0 | 5.0 | 0.00 | 0.39 | 0.39 | 79 | 1018.5 |
| 20260902173638 | 79 | 212 | 1.0 | 5.0 | 0.00 | 0.39 | 0.39 | 78 | 1018.6 |
| 20260902173123 | 79 | 223 | 2.0 | 5.0 | 0.00 | 0.39 | 0.39 | 80 | 1018.6 |
| 20260902172619 | 77 | 205 | 1.0 | 4.0 | 0.00 | 0.39 | 0.39 | 81 | 1018.7 |
| 20260902172148 | 76 | 208 | 0.0 | 0.0 | 0.00 | 0.39 | 0.39 | 82 | 1018.6 |
| 20260902171643 | 74 | 208 | 0.0 | 0.0 | 0.00 | 0.39 | 0.39 | 82 | 1018.8 |
| 20260902171138 | 74 | 219 | 0.0 | 0.0 | 0.00 | 0.39 | 0.39 | 82 | 1018.9 |
| 20260902170625 | 73 | 220 | 0.0 | 0.0 | 0.00 | 0.39 | 0.39 | 82 | 1019.0 |
| 20260902170138 | 73 | 220 | 0.0 | 0.0 | 0.00 | 0.39 | 0.39 | 82 | 1019.1 |
| 20260902165625 | 73 | 220 | 0.0 | 1.0 | 0.00 | 0.39 | 0.39 | 83 | 1019.3 |
| 20260902165138 | 72 | 214 | 0.0 | 1.0 | 0.02 | 0.39 | 0.39 | 83 | 1019.4 |
| 20260902164632 | 71 | 216 | 0.0 | 4.0 | 0.17 | 0.39 | 0.39 | 83 | 1019.5 |
| 20260902164119 | 70 | 216 | 1.0 | 4.0 | 0.37 | 0.39 | 0.39 | 83 | 1019.6 |
| 20260902163632 | 70 | 209 | 0.0 | 3.0 | 0.39 | 0.39 | 0.39 | 83 | 1019.8 |
| 20260902163120 | 70 | 209 | 0.0 | 3.0 | 0.39 | 0.39 | 0.39 | 83 | 1020.0 |
| 20260902162634 | 69 | 146 | 0.0 | 0.0 | 0.39 | 0.39 | 0.39 | 83 | 1020.1 |
| 20260902162120 | 69 | 119 | 0.0 | 0.0 | 0.39 | 0.39 | 0.39 | 83 | 1020.0 |
| 20260902161634 | 69 | 119 | 0.0 | 0.0 | 0.39 | 0.39 | 0.39 | 82 | 1020.0 |
| 20260902161123 | 69 | 119 | 0.0 | 0.0 | 0.39 | 0.39 | 0.39 | 82 | 1020.1 |
| 20260902160616 | 69 | 119 | 0.0 | 0.0 | 0.39 | 0.39 | 0.39 | 82 | 1020.4 |
| 20260902160132 | 69 | 119 | 0.0 | 3.0 | 0.39 | 0.39 | 0.39 | 82 | 1020.4 |
| 20260902155642 | 69 | 119 | 0.0 | 9.0 | 0.39 | 0.39 | 0.39 | 82 | 1020.1 |
| 20260902155152 | 70 | 97 | 6.0 | 14.0 | 0.37 | 0.37 | 0.37 | 82 | 1020.0 |
| 20260902154644 | 70 | 52 | 1.0 | 15.0 | 0.19 | 0.19 | 0.19 | 82 | 1020.5 |
| 20260902154159 | 71 | 10 | 11.0 | 17.0 | 0.01 | 0.01 | 0.01 | 81 | 1020.8 |
| 20260902153622 | 72 | 14 | 10.0 | 17.0 | 0.00 | 0.00 | 0.00 | 81 | 1020.0 |
| 20260902153157 | 72 | 66 | 7.0 | 16.0 | 0.00 | 0.00 | 0.00 | 81 | 1020.3 |
| 20260902152644 | 73 | 5 | 9.0 | 21.0 | 0.00 | 0.00 | 0.00 | 80 | 1020.7 |
| 20260902152137 | 74 | 60 | 13.0 | 21.0 | 0.00 | 0.00 | 0.00 | 79 | 1020.5 |
| 20260902151623 | 76 | 39 | 12.0 | 27.0 | 0.00 | 0.00 | 0.00 | 79 | 1020.6 |
| 20260902151119 | 77 | 360 | 18.0 | 27.0 | 0.00 | 0.00 | 0.00 | 79 | 1020.4 |
| 20260902150633 | 78 | 19 | 5.0 | 9.0 | 0.00 | 0.00 | 0.00 | 80 | 1019.8 |
| 20260902150121 | 79 | 203 | 0.0 | 0.0 | 0.00 | 0.00 | 0.00 | 80 | 1019.4 |
| 20260902145635 | 79 | 203 | 0.0 | 0.0 | 0.00 | 0.00 | 0.00 | 80 | 1019.1 |
| 20260902145123 | 79 | 203 | 0.0 | 1.0 | 0.00 | 0.00 | 0.00 | 80 | 1018.9 |
| 20260902144636 | 79 | 203 | 0.0 | 4.0 | 0.00 | 0.00 | 0.00 | 80 | 1018.8 |
| 20260902144123 | 78 | 203 | 1.0 | 4.0 | 0.00 | 0.00 | 0.00 | 81 | 1018.6 |
| 20260902143636 | 78 | 213 | 1.0 | 5.0 | 0.00 | 0.00 | 0.00 | 81 | 1018.5 |
| 20260902143124 | 77 | 176 | 2.0 | 6.0 | 0.00 | 0.00 | 0.00 | 81 | 1018.5 |
| 20260902142616 | 77 | 180 | 2.0 | 5.0 | 0.00 | 0.00 | 0.00 | 81 | 1018.4 |
| 20260902142140 | 77 | 180 | 1.0 | 5.0 | 0.00 | 0.00 | 0.00 | 81 | 1018.5 |
| 20260902141635 | 76 | 204 | 2.0 | 5.0 | 0.00 | 0.00 | 0.00 | 81 | 1018.6 |
| 20260902141129 | 76 | 230 | 2.0 | 5.0 | 0.00 | 0.00 | 0.00 | 81 | 1018.5 |
| 20260902140621 | 76 | 186 | 1.0 | 6.0 | 0.00 | 0.00 | 0.00 | 81 | 1018.3 |
| 20260902140135 | 76 | 237 | 2.0 | 6.0 | 0.00 | 0.00 | 0.00 | 81 | 1018.3 |
| 20260902135621 | 75 | 224 | 2.0 | 7.0 | 0.00 | 0.00 | 0.00 | 81 | 1018.3 |
| 20260902135135 | 75 | 216 | 3.0 | 7.0 | 0.00 | 0.00 | 0.00 | 81 | 1018.3 |
| 20260902134622 | 75 | 212 | 1.0 | 5.0 | 0.00 | 0.00 | 0.00 | 81 | 1018.2 |
| 20260902134136 | 75 | 210 | 1.0 | 5.0 | 0.00 | 0.00 | 0.00 | 82 | 1018.3 |
| 20260902133621 | 75 | 220 | 2.0 | 5.0 | 0.00 | 0.00 | 0.00 | 81 | 1018.3 |
| 20260902133136 | 74 | 213 | 2.0 | 5.0 | 0.00 | 0.00 | 0.00 | 81 | 1018.4 |
| 20260902132625 | 74 | 208 | 1.0 | 5.0 | 0.00 | 0.00 | 0.00 | 81 | 1018.3 |
| 20260902132138 | 74 | 207 | 2.0 | 6.0 | 0.00 | 0.00 | 0.00 | 82 | 1018.4 |
| 20260902131625 | 74 | 206 | 3.0 | 6.0 | 0.00 | 0.00 | 0.00 | 82 | 1018.4 |
| 20260902131200 | 74 | 192 | 3.0 | 6.0 | 0.00 | 0.00 | 0.00 | 82 | 1018.4 |
| 20260902130624 | 74 | 199 | 1.0 | 5.0 | 0.00 | 0.00 | 0.00 | 82 | 1018.5 |
| 20260902130117 | 74 | 169 | 2.0 | 6.0 | 0.00 | 0.00 | 0.00 | 82 | 1018.4 |
| 20260902125633 | 73 | 187 | 3.0 | 7.0 | 0.00 | 0.00 | 0.00 | 82 | 1018.4 |
| 20260902125138 | 73 | 160 | 1.0 | 3.0 | 0.00 | 0.00 | 0.00 | 82 | 1018.4 |
| 20260902124632 | 73 | 154 | 1.0 | 4.0 | 0.00 | 0.00 | 0.00 | 82 | 1018.5 |
| 20260902124120 | 72 | 178 | 1.0 | 4.0 | 0.00 | 0.00 | 0.00 | 82 | 1018.7 |
| 20260902123633 | 72 | 187 | 1.0 | 3.0 | 0.00 | 0.00 | 0.00 | 82 | 1018.8 |
| 20260902123118 | 72 | 191 | 1.0 | 3.0 | 0.00 | 0.00 | 0.00 | 82 | 1018.6 |
| 20260902122629 | 72 | 193 | 1.0 | 3.0 | 0.00 | 0.00 | 0.00 | 83 | 1018.4 |
| 20260902122141 | 71 | 196 | 1.0 | 4.0 | 0.00 | 0.00 | 0.00 | 83 | 1018.3 |
| 20260902121634 | 71 | 197 | 2.0 | 4.0 | 0.00 | 0.00 | 0.00 | 83 | 1018.2 |
| 20260902121130 | 71 | 201 | 1.0 | 4.0 | 0.00 | 0.00 | 0.00 | 83 | 1018.1 |
| 20260902120623 | 70 | 214 | 1.0 | 4.0 | 0.00 | 0.00 | 0.00 | 83 | 1018.2 |
| 20260902120137 | 70 | 203 | 1.0 | 4.0 | 0.00 | 0.00 | 0.00 | 83 | 1018.2 |
| 20260902115624 | 70 | 215 | 1.0 | 4.0 | 0.00 | 0.00 | 0.00 | 83 | 1018.2 |
| 20260902115138 | 69 | 213 | 1.0 | 2.0 | 0.00 | 0.00 | 0.00 | 84 | 1018.1 |
| 20260902114644 | 69 | 213 | 1.0 | 2.0 | 0.00 | 0.00 | 0.00 | 84 | 1018.2 |
| 20260902114119 | 69 | 212 | 0.0 | 1.0 | 0.00 | 0.00 | 0.00 | 83 | 1018.2 |
| 20260902113633 | 69 | 213 | 0.0 | 0.0 | 0.00 | 0.00 | 0.00 | 84 | 1018.2 |
| 20260902113120 | 69 | 214 | 0.0 | 2.0 | 0.00 | 0.00 | 0.00 | 83 | 1018.2 |
| 20260902112635 | 68 | 214 | 0.0 | 5.0 | 0.00 | 0.00 | 0.00 | 83 | 1018.1 |
| 20260902112141 | 68 | 214 | 2.0 | 5.0 | 0.00 | 0.00 | 0.00 | 83 | 1018.0 |
| 20260902111635 | 68 | 205 | 1.0 | 3.0 | 0.00 | 0.00 | 0.00 | 83 | 1017.9 |
| 20260902111122 | 68 | 206 | 0.0 | 4.0 | 0.00 | 0.00 | 0.00 | 83 | 1017.9 |
| 20260902110656 | 68 | 205 | 1.0 | 4.0 | 0.00 | 0.00 | 0.00 | 83 | 1017.9 |
| 20260902110124 | 68 | 224 | 1.0 | 3.0 | 0.00 | 0.00 | 0.00 | 83 | 1017.9 |
| 20260902105617 | 68 | 224 | 0.0 | 3.0 | 0.00 | 0.00 | 0.00 | 83 | 1017.8 |
| 20260902105132 | 68 | 224 | 0.0 | 5.0 | 0.00 | 0.00 | 0.00 | 83 | 1017.8 |
| 20260902104619 | 68 | 226 | 2.0 | 5.0 | 0.00 | 0.00 | 0.00 | 83 | 1017.9 |
| 20260902104128 | 68 | 222 | 2.0 | 3.0 | 0.00 | 0.00 | 0.00 | 83 | 1017.7 |
| 20260902103640 | 68 | 212 | 1.0 | 3.0 | 0.00 | 0.00 | 0.00 | 83 | 1017.8 |
| 20260902103154 | 68 | 212 | 1.0 | 4.0 | 0.00 | 0.00 | 0.00 | 83 | 1017.7 |
| 20260902102622 | 68 | 210 | 1.0 | 4.0 | 0.00 | 0.00 | 0.00 | 83 | 1017.9 |
| 20260902102136 | 68 | 232 | 1.0 | 4.0 | 0.00 | 0.00 | 0.00 | 83 | 1018.0 |
| 20260902101624 | 68 | 214 | 2.0 | 5.0 | 0.00 | 0.00 | 0.00 | 83 | 1017.9 |
| 20260902101140 | 68 | 213 | 3.0 | 5.0 | 0.00 | 0.00 | 0.00 | 83 | 1018.0 |
| 20260902100624 | 68 | 216 | 3.0 | 5.0 | 0.00 | 0.00 | 0.00 | 83 | 1018.0 |
| 20260902100139 | 68 | 228 | 3.0 | 5.0 | 0.00 | 0.00 | 0.00 | 83 | 1018.0 |
| 20260902095625 | 68 | 219 | 2.0 | 4.0 | 0.00 | 0.00 | 0.00 | 83 | 1018.0 |
| 20260902095137 | 68 | 218 | 2.0 | 4.0 | 0.00 | 0.00 | 0.00 | 83 | 1018.1 |
| 20260902094625 | 68 | 218 | 1.0 | 3.0 | 0.00 | 0.00 | 0.00 | 83 | 1018.0 |
| 20260902094120 | 69 | 218 | 0.0 | 3.0 | 0.00 | 0.00 | 0.00 | 83 | 1018.0 |
| 20260902093635 | 69 | 217 | 1.0 | 4.0 | 0.00 | 0.00 | 0.00 | 83 | 1018.0 |
| 20260902093143 | 69 | 220 | 2.0 | 5.0 | 0.00 | 0.00 | 0.00 | 83 | 1018.0 |
| 20260902092637 | 69 | 220 | 3.0 | 6.0 | 0.00 | 0.00 | 0.00 | 83 | 1018.0 |
| 20260902092123 | 69 | 216 | 4.0 | 6.0 | 0.00 | 0.00 | 0.00 | 83 | 1017.9 |
| 20260902091657 | 69 | 216 | 3.0 | 5.0 | 0.00 | 0.00 | 0.00 | 83 | 1017.9 |
| 20260902091124 | 69 | 214 | 2.0 | 4.0 | 0.00 | 0.00 | 0.00 | 83 | 1017.9 |
| 20260902090617 | 69 | 211 | 1.0 | 4.0 | 0.00 | 0.00 | 0.00 | 83 | 1017.9 |
| 20260902090123 | 69 | 214 | 1.0 | 4.0 | 0.00 | 0.00 | 0.00 | 83 | 1018.0 |
| 20260902085618 | 69 | 215 | 0.0 | 5.0 | 0.00 | 0.00 | 0.00 | 83 | 1018.1 |
| 20260902085131 | 69 | 218 | 3.0 | 5.0 | 0.00 | 0.00 | 0.00 | 83 | 1018.1 |
| 20260902084626 | 69 | 224 | 2.0 | 8.0 | 0.00 | 0.00 | 0.00 | 83 | 1018.1 |
| 20260902084122 | 69 | 230 | 4.0 | 8.0 | 0.00 | 0.00 | 0.00 | 83 | 1018.1 |
| 20260902083657 | 69 | 218 | 1.0 | 4.0 | 0.00 | 0.00 | 0.00 | 83 | 1018.0 |
| 20260902083123 | 69 | 215 | 1.0 | 4.0 | 0.00 | 0.00 | 0.00 | 83 | 1018.1 |
| 20260902082637 | 69 | 205 | 0.0 | 4.0 | 0.00 | 0.00 | 0.00 | 83 | 1018.1 |
| 20260902082144 | 69 | 216 | 1.0 | 4.0 | 0.00 | 0.00 | 0.00 | 83 | 1018.0 |
| 20260902081617 | 69 | 212 | 0.0 | 5.0 | 0.00 | 0.00 | 0.00 | 83 | 1017.9 |
| 20260902081133 | 69 | 213 | 2.0 | 5.0 | 0.00 | 0.00 | 0.00 | 83 | 1017.9 |
| 20260902080621 | 69 | 201 | 2.0 | 4.0 | 0.00 | 0.00 | 0.00 | 83 | 1018.0 |
| 20260902080136 | 69 | 195 | 1.0 | 3.0 | 0.00 | 0.00 | 0.00 | 83 | 1017.9 |
| 20260902075645 | 69 | 185 | 1.0 | 3.0 | 0.00 | 0.00 | 0.00 | 83 | 1017.9 |
| 20260902075137 | 69 | 208 | 0.0 | 3.0 | 0.00 | 0.00 | 0.00 | 83 | 1017.9 |
| 20260902074644 | 69 | 202 | 0.0 | 2.0 | 0.00 | 0.00 | 0.00 | 83 | 1017.8 |
| 20260902074118 | 69 | 187 | 0.0 | 0.0 | 0.00 | 0.00 | 0.00 | 83 | 1017.7 |
| 20260902073632 | 69 | 187 | 0.0 | 0.0 | 0.00 | 0.00 | 0.00 | 83 | 1017.7 |
| 20260902073122 | 69 | 187 | 0.0 | 0.0 | 0.00 | 0.00 | 0.00 | 82 | 1017.6 |
| 20260902072618 | 69 | 187 | 0.0 | 0.0 | 0.00 | 0.00 | 0.00 | 82 | 1017.7 |
| 20260902072134 | 69 | 187 | 0.0 | 0.0 | 0.00 | 0.00 | 0.00 | 82 | 1017.8 |
| 20260902071622 | 69 | 187 | 0.0 | 0.0 | 0.00 | 0.00 | 0.00 | 82 | 1017.9 |
| 20260902071118 | 69 | 187 | 0.0 | 0.0 | 0.00 | 0.00 | 0.00 | 82 | 1017.8 |
| 20260902070627 | 69 | 187 | 0.0 | 0.0 | 0.00 | 0.00 | 0.00 | 82 | 1017.9 |
| 20260902070121 | 69 | 187 | 0.0 | 0.0 | 0.00 | 0.00 | 0.00 | 82 | 1018.0 |
| 20260902065616 | 70 | 187 | 0.0 | 0.0 | 0.00 | 0.00 | 0.00 | 82 | 1018.0 |
| 20260902065131 | 70 | 187 | 0.0 | 0.0 | 0.00 | 0.00 | 0.00 | 82 | 1018.0 |
| 20260902064624 | 70 | 187 | 0.0 | 0.0 | 0.00 | 0.00 | 0.00 | 82 | 1018.0 |
| 20260902064120 | 70 | 187 | 0.0 | 0.0 | 0.00 | 0.00 | 0.00 | 82 | 1018.1 |
| 20260902063634 | 70 | 187 | 0.0 | 0.0 | 0.00 | 0.00 | 0.00 | 82 | 1018.1 |
| 20260902063126 | 70 | 187 | 0.0 | 0.0 | 0.00 | 0.00 | 0.00 | 82 | 1018.1 |
| 20260902062623 | 70 | 187 | 0.0 | 0.0 | 0.00 | 0.00 | 0.00 | 82 | 1018.1 |
| 20260902062117 | 70 | 187 | 0.0 | 0.0 | 0.00 | 0.00 | 0.00 | 82 | 1018.1 |
| 20260902061652 | 71 | 187 | 0.0 | 0.0 | 0.00 | 0.00 | 0.00 | 82 | 1018.2 |
| 20260902061122 | 71 | 187 | 0.0 | 0.0 | 0.00 | 0.00 | 0.00 | 82 | 1018.3 |
| 20260902060636 | 71 | 187 | 0.0 | 0.0 | 0.00 | 0.00 | 0.00 | 82 | 1018.4 |
| 20260902060124 | 71 | 187 | 0.0 | 0.0 | 0.00 | 0.00 | 0.00 | 82 | 1018.4 |
| 20260902055640 | 71 | 187 | 0.0 | 0.0 | 0.00 | 0.00 | 0.00 | 82 | 1018.4 |
| 20260902055125 | 71 | 187 | 0.0 | 0.0 | 0.00 | 0.00 | 0.00 | 82 | 1018.3 |
| 20260902054639 | 71 | 187 | 0.0 | 0.0 | 0.00 | 0.00 | 0.00 | 82 | 1018.2 |
| 20260902054135 | 71 | 187 | 0.0 | 0.0 | 0.00 | 0.00 | 0.00 | 82 | 1018.3 |
| 20260902053622 | 71 | 187 | 0.0 | 0.0 | 0.00 | 0.00 | 0.00 | 82 | 1018.3 |
| 20260902053117 | 71 | 187 | 0.0 | 0.0 | 0.00 | 0.00 | 0.00 | 82 | 1018.3 |
| 20260902052633 | 71 | 187 | 0.0 | 0.0 | 0.00 | 0.00 | 0.00 | 82 | 1018.3 |
| 20260902052119 | 71 | 187 | 0.0 | 0.0 | 0.00 | 0.00 | 0.00 | 82 | 1018.3 |
| 20260902051653 | 71 | 187 | 0.0 | 0.0 | 0.00 | 0.00 | 0.00 | 82 | 1018.2 |
| 20260902051121 | 71 | 187 | 0.0 | 0.0 | 0.00 | 0.00 | 0.00 | 82 | 1018.2 |
| 20260902050636 | 71 | 187 | 0.0 | 0.0 | 0.00 | 0.00 | 0.00 | 82 | 1018.2 |
| 20260902050122 | 71 | 187 | 0.0 | 0.0 | 0.00 | 0.00 | 0.00 | 82 | 1018.2 |
| 20260902045654 | 71 | 187 | 0.0 | 0.0 | 0.00 | 0.00 | 0.00 | 82 | 1018.1 |
| 20260902045126 | 71 | 187 | 0.0 | 0.0 | 0.00 | 0.00 | 0.00 | 82 | 1018.2 |
| 20260902044621 | 71 | 187 | 0.0 | 0.0 | 0.00 | 0.00 | 0.00 | 82 | 1018.1 |
| 20260902044136 | 71 | 187 | 0.0 | 0.0 | 0.00 | 0.00 | 0.00 | 82 | 1018.0 |
| 20260902043643 | 70 | 187 | 0.0 | 0.0 | 0.00 | 0.00 | 0.00 | 82 | 1018.0 |
| 20260902043142 | 70 | 187 | 0.0 | 0.0 | 0.00 | 0.00 | 0.00 | 82 | 1017.8 |
| 20260902042639 | 71 | 187 | 0.0 | 0.0 | 0.00 | 0.00 | 0.00 | 82 | 1017.8 |
| 20260902042133 | 71 | 187 | 0.0 | 0.0 | 0.00 | 0.00 | 0.00 | 82 | 1017.7 |
| 20260902041620 | 71 | 187 | 0.0 | 0.0 | 0.00 | 0.00 | 0.00 | 82 | 1017.6 |
| 20260902041135 | 71 | 187 | 0.0 | 0.0 | 0.00 | 0.00 | 0.00 | 82 | 1017.6 |
| 20260902040621 | 71 | 187 | 0.0 | 0.0 | 0.00 | 0.00 | 0.00 | 82 | 1017.5 |
| 20260902040136 | 71 | 187 | 0.0 | 0.0 | 0.00 | 0.00 | 0.00 | 81 | 1017.4 |
| 20260902035621 | 71 | 187 | 0.0 | 0.0 | 0.00 | 0.00 | 0.00 | 81 | 1017.2 |
| 20260902035136 | 71 | 187 | 0.0 | 0.0 | 0.00 | 0.00 | 0.00 | 81 | 1017.1 |
| 20260902034623 | 71 | 187 | 0.0 | 0.0 | 0.00 | 0.00 | 0.00 | 81 | 1017.0 |
| 20260902034155 | 72 | 187 | 0.0 | 0.0 | 0.00 | 0.00 | 0.00 | 81 | 1017.1 |
| 20260902033627 | 72 | 187 | 0.0 | 1.0 | 0.00 | 0.00 | 0.00 | 81 | 1016.9 |
| 20260902033122 | 72 | 187 | 0.0 | 1.0 | 0.00 | 0.00 | 0.00 | 81 | 1016.9 |
| 20260902032639 | 72 | 187 | 0.0 | 0.0 | 0.00 | 0.00 | 0.00 | 81 | 1016.8 |
| 20260902032132 | 73 | 187 | 0.0 | 0.0 | 0.00 | 0.00 | 0.00 | 81 | 1016.8 |
| 20260902031619 | 73 | 187 | 0.0 | 0.0 | 0.00 | 0.00 | 0.00 | 80 | 1016.7 |
| 20260902031135 | 73 | 187 | 0.0 | 0.0 | 0.00 | 0.00 | 0.00 | 80 | 1016.5 |
| 20260902030620 | 74 | 187 | 0.0 | 0.0 | 0.00 | 0.00 | 0.00 | 80 | 1016.5 |
| 20260902030134 | 74 | 186 | 0.0 | 1.0 | 0.00 | 0.00 | 0.00 | 80 | 1016.5 |
| 20260902025622 | 74 | 186 | 0.0 | 3.0 | 0.00 | 0.00 | 0.00 | 80 | 1016.5 |
| 20260902025155 | 74 | 191 | 1.0 | 6.0 | 0.00 | 0.00 | 0.00 | 80 | 1016.5 |
| 20260902024642 | 74 | 204 | 2.0 | 6.0 | 0.00 | 0.00 | 0.00 | 80 | 1016.5 |
| 20260902024136 | 74 | 201 | 2.0 | 5.0 | 0.00 | 0.00 | 0.00 | 80 | 1016.5 |
| 20260902023621 | 74 | 234 | 0.0 | 4.0 | 0.00 | 0.00 | 0.00 | 80 | 1016.5 |
| 20260902023157 | 74 | 214 | 1.0 | 5.0 | 0.00 | 0.00 | 0.00 | 80 | 1016.5 |
| 20260902022644 | 74 | 220 | 3.0 | 5.0 | 0.00 | 0.00 | 0.00 | 80 | 1016.7 |
| 20260902022116 | 74 | 229 | 2.0 | 5.0 | 0.00 | 0.00 | 0.00 | 80 | 1016.8 |
| 20260902021625 | 74 | 235 | 1.0 | 5.0 | 0.00 | 0.00 | 0.00 | 80 | 1016.7 |
| 20260902021118 | 74 | 230 | 1.0 | 4.0 | 0.00 | 0.00 | 0.00 | 80 | 1016.8 |
| 20260902020632 | 74 | 230 | 1.0 | 5.0 | 0.00 | 0.00 | 0.00 | 80 | 1016.7 |
| 20260902020147 | 74 | 232 | 1.0 | 5.0 | 0.00 | 0.00 | 0.00 | 80 | 1016.7 |
| 20260902015621 | 75 | 218 | 1.0 | 4.0 | 0.00 | 0.00 | 0.00 | 80 | 1016.8 |
| 20260902015134 | 74 | 218 | 1.0 | 5.0 | 0.00 | 0.00 | 0.00 | 80 | 1016.8 |
| 20260902014621 | 75 | 205 | 1.0 | 5.0 | 0.00 | 0.00 | 0.00 | 80 | 1016.8 |
| 20260902014137 | 75 | 226 | 0.0 | 4.0 | 0.00 | 0.00 | 0.00 | 80 | 1016.8 |
| 20260902013643 | 75 | 226 | 0.0 | 4.0 | 0.00 | 0.00 | 0.00 | 79 | 1016.8 |
| 20260902013136 | 76 | 234 | 0.0 | 4.0 | 0.00 | 0.00 | 0.00 | 79 | 1016.8 |
| 20260902012623 | 76 | 234 | 0.0 | 3.0 | 0.00 | 0.00 | 0.00 | 79 | 1016.8 |
| 20260902012138 | 76 | 234 | 0.0 | 0.0 | 0.00 | 0.00 | 0.00 | 79 | 1016.7 |
| 20260902011625 | 77 | 234 | 0.0 | 0.0 | 0.00 | 0.00 | 0.00 | 78 | 1016.6 |
| 20260902011120 | 77 | 235 | 0.0 | 0.0 | 0.00 | 0.00 | 0.00 | 78 | 1016.5 |
| 20260902010634 | 78 | 235 | 0.0 | 0.0 | 0.00 | 0.00 | 0.00 | 77 | 1016.6 |
| 20260902010122 | 79 | 235 | 0.0 | 0.0 | 0.00 | 0.00 | 0.00 | 76 | 1016.5 |
| 20260902005636 | 79 | 235 | 0.0 | 3.0 | 0.00 | 0.00 | 0.00 | 75 | 1016.3 |
| 20260902005123 | 79 | 237 | 0.0 | 4.0 | 0.00 | 0.00 | 0.00 | 75 | 1016.1 |
| 20260902004637 | 80 | 237 | 0.0 | 5.0 | 0.00 | 0.00 | 0.00 | 75 | 1016.1 |
| 20260902004124 | 80 | 243 | 1.0 | 5.0 | 0.00 | 0.00 | 0.00 | 74 | 1016.0 |
| 20260902003618 | 80 | 194 | 0.0 | 2.0 | 0.00 | 0.00 | 0.00 | 74 | 1015.9 |
| 20260902003133 | 81 | 194 | 0.0 | 4.0 | 0.00 | 0.00 | 0.00 | 73 | 1015.6 |
| 20260902002619 | 81 | 189 | 2.0 | 4.0 | 0.00 | 0.00 | 0.00 | 73 | 1015.6 |
| 20260902002133 | 81 | 245 | 1.0 | 6.0 | 0.00 | 0.00 | 0.00 | 73 | 1015.5 |
| 20260902001619 | 81 | 170 | 2.0 | 10.0 | 0.00 | 0.00 | 0.00 | 73 | 1015.6 |
| 20260902001130 | 81 | 217 | 5.0 | 10.0 | 0.00 | 0.00 | 0.00 | 73 | 1015.6 |
| 20260902000642 | 81 | 180 | 2.0 | 6.0 | 0.00 | 0.00 | 0.00 | 73 | 1015.8 |
| 20260902000115 | 82 | 208 | 0.0 | 5.0 | 0.00 | 0.00 | 0.00 | 72 | 1015.9 |
| 20260901235630 | 82 | 234 | 1.0 | 5.0 | 0.00 | 0.00 | 0.00 | 72 | 1015.9 |
| 20260901235123 | 82 | 199 | 0.0 | 8.0 | 0.00 | 0.00 | 0.00 | 71 | 1015.7 |
| 20260901234618 | 83 | 226 | 1.0 | 6.0 | 0.00 | 0.00 | 0.00 | 71 | 1015.7 |
| 20260901234155 | 83 | 219 | 2.0 | 6.0 | 0.00 | 0.00 | 0.00 | 71 | 1015.7 |
| 20260901233619 | 83 | 214 | 1.0 | 5.0 | 0.00 | 0.00 | 0.00 | 71 | 1015.6 |
| 20260901233153 | 84 | 214 | 0.0 | 3.0 | 0.00 | 0.00 | 0.00 | 70 | 1015.6 |
| 20260901232639 | 84 | 219 | 1.0 | 5.0 | 0.00 | 0.00 | 0.00 | 69 | 1015.5 |
| 20260901232124 | 85 | 203 | 1.0 | 5.0 | 0.00 | 0.00 | 0.00 | 69 | 1015.5 |
| 20260901231656 | 85 | 203 | 0.0 | 2.0 | 0.00 | 0.00 | 0.00 | 69 | 1015.5 |
| 20260901231125 | 85 | 203 | 0.0 | 5.0 | 0.00 | 0.00 | 0.00 | 69 | 1015.3 |
| 20260901230638 | 85 | 205 | 1.0 | 5.0 | 0.00 | 0.00 | 0.00 | 68 | 1015.3 |
| 20260901230145 | 86 | 211 | 0.0 | 2.0 | 0.00 | 0.00 | 0.00 | 68 | 1015.5 |
| 20260901225621 | 86 | 217 | 0.0 | 3.0 | 0.00 | 0.00 | 0.00 | 68 | 1015.5 |
| 20260901225133 | 86 | 218 | 1.0 | 7.0 | 0.00 | 0.00 | 0.00 | 67 | 1015.4 |
| 20260901224620 | 86 | 214 | 2.0 | 7.0 | 0.00 | 0.00 | 0.00 | 68 | 1015.4 |
| 20260901224116 | 87 | 172 | 2.0 | 6.0 | 0.00 | 0.00 | 0.00 | 68 | 1015.4 |
| 20260901223625 | 87 | 200 | 1.0 | 5.0 | 0.00 | 0.00 | 0.00 | 68 | 1015.5 |
| 20260901223118 | 87 | 235 | 2.0 | 6.0 | 0.00 | 0.00 | 0.00 | 68 | 1015.5 |
| 20260901222632 | 87 | 207 | 0.0 | 6.0 | 0.00 | 0.00 | 0.00 | 68 | 1015.4 |
| 20260901222124 | 86 | 258 | 1.0 | 7.0 | 0.00 | 0.00 | 0.00 | 68 | 1015.3 |
| 20260901221618 | 86 | 223 | 0.0 | 7.0 | 0.00 | 0.00 | 0.00 | 68 | 1015.3 |
| 20260901221153 | 86 | 252 | 0.0 | 4.0 | 0.00 | 0.00 | 0.00 | 67 | 1015.3 |
| 20260901220619 | 86 | 265 | 0.0 | 6.0 | 0.00 | 0.00 | 0.00 | 67 | 1015.2 |
| 20260901220134 | 87 | 231 | 1.0 | 9.0 | 0.00 | 0.00 | 0.00 | 67 | 1015.2 |
| 20260901215621 | 87 | 289 | 4.0 | 11.0 | 0.00 | 0.00 | 0.00 | 65 | 1015.2 |
| 20260901215134 | 88 | 275 | 7.0 | 11.0 | 0.00 | 0.00 | 0.00 | 63 | 1015.2 |
| 20260901214622 | 88 | 239 | 4.0 | 8.0 | 0.00 | 0.00 | 0.00 | 64 | 1015.2 |
| 20260901214136 | 88 | 214 | 1.0 | 5.0 | 0.00 | 0.00 | 0.00 | 65 | 1015.2 |
| 20260901213642 | 88 | 286 | 2.0 | 6.0 | 0.00 | 0.00 | 0.00 | 65 | 1015.2 |
| 20260901213136 | 88 | 228 | 0.0 | 6.0 | 0.00 | 0.00 | 0.00 | 63 | 1015.3 |
| 20260901212623 | 89 | 210 | 0.0 | 5.0 | 0.00 | 0.00 | 0.00 | 63 | 1015.2 |
| 20260901212137 | 89 | 211 | 1.0 | 5.0 | 0.00 | 0.00 | 0.00 | 63 | 1015.3 |
| 20260901211623 | 89 | 208 | 1.0 | 10.0 | 0.00 | 0.00 | 0.00 | 63 | 1015.3 |
| 20260901211137 | 88 | 201 | 1.0 | 17.0 | 0.00 | 0.00 | 0.00 | 63 | 1015.3 |
| 20260901210623 | 88 | 185 | 9.0 | 17.0 | 0.00 | 0.00 | 0.00 | 63 | 1015.2 |
| 20260901210118 | 88 | 178 | 1.0 | 8.0 | 0.00 | 0.00 | 0.00 | 68 | 1015.3 |
| 20260901205634 | 88 | 241 | 2.0 | 8.0 | 0.00 | 0.00 | 0.00 | 66 | 1015.2 |
| 20260901205141 | 87 | 186 | 2.0 | 6.0 | 0.00 | 0.00 | 0.00 | 67 | 1015.3 |
| 20260901204630 | 87 | 241 | 0.0 | 6.0 | 0.00 | 0.00 | 0.00 | 69 | 1015.2 |
| 20260901204147 | 88 | 119 | 0.0 | 4.0 | 0.00 | 0.00 | 0.00 | 67 | 1015.3 |
| 20260901203619 | 88 | 107 | 1.0 | 6.0 | 0.00 | 0.00 | 0.00 | 65 | 1015.3 |
| 20260901203133 | 88 | 31 | 0.0 | 7.0 | 0.00 | 0.00 | 0.00 | 64 | 1015.2 |
| 20260901202621 | 88 | 203 | 3.0 | 7.0 | 0.00 | 0.00 | 0.00 | 65 | 1015.4 |
| 20260901202135 | 89 | 116 | 4.0 | 7.0 | 0.00 | 0.00 | 0.00 | 62 | 1015.3 |
| 20260901201623 | 89 | 253 | 0.0 | 11.0 | 0.00 | 0.00 | 0.00 | 63 | 1015.3 |
| 20260901201138 | 89 | 197 | 1.0 | 11.0 | 0.00 | 0.00 | 0.00 | 61 | 1015.3 |
| 20260901200624 | 90 | 178 | 2.0 | 6.0 | 0.00 | 0.00 | 0.00 | 61 | 1015.4 |
| 20260901200137 | 90 | 214 | 1.0 | 12.0 | 0.00 | 0.00 | 0.00 | 61 | 1015.3 |
| 20260901195625 | 91 | 199 | 6.0 | 12.0 | 0.00 | 0.00 | 0.00 | 58 | 1015.3 |
| 20260901195117 | 92 | 188 | 2.0 | 15.0 | 0.00 | 0.00 | 0.00 | 58 | 1015.5 |
| 20260901194651 | 91 | 178 | 2.0 | 24.0 | 0.00 | 0.00 | 0.00 | 58 | 1015.2 |
| 20260901194122 | 92 | 191 | 9.0 | 24.0 | 0.00 | 0.00 | 0.00 | 57 | 1015.3 |
| 20260901193636 | 92 | 154 | 8.0 | 12.0 | 0.00 | 0.00 | 0.00 | 59 | 1015.3 |
| 20260901193125 | 92 | 217 | 5.0 | 15.0 | 0.00 | 0.00 | 0.00 | 57 | 1015.3 |
| 20260901192620 | 91 | 199 | 5.0 | 15.0 | 0.00 | 0.00 | 0.00 | 58 | 1015.3 |
| 20260901192134 | 92 | 226 | 2.0 | 15.0 | 0.00 | 0.00 | 0.00 | 60 | 1015.3 |
| 20260901191621 | 92 | 215 | 2.0 | 21.0 | 0.00 | 0.00 | 0.00 | 58 | 1015.2 |